CDT,Max TemperatureF,Mean TemperatureF,Min TemperatureF,Max Dew PointF,MeanDew PointF,Min DewpointF,Max Humidity, Mean Humidity, Min Humidity, Max Sea Level PressureIn, Mean Sea Level PressureIn, Min Sea Level PressureIn, Max VisibilityMiles, Mean VisibilityMiles, Min VisibilityMiles, Max Wind SpeedMPH, Mean Wind SpeedMPH, Max Gust SpeedMPH,PrecipitationIn, CloudCover, Events, WindDirDegrees
2013-6-1,76,70,62,68,64,58,100,92,61,29.96,29.82,29.74,10,9,2,16,7,18,0.30,6,Rain-Thunderstorm,190
2013-6-2,64,58,52,57,56,52,100,86,77,30.06,30.02,29.96,10,10,2,9,6,,0.00,7,,304
2013-6-3,73,62,50,58,53,50,100,80,53,30.09,30.04,29.97,10,8,1,8,2,,0.00,3,,22
2013-6-4,72,64,55,62,60,55,100,77,64,30.06,30.02,29.98,10,10,10,13,7,,0.00,5,,118
2013-6-5,75,66,58,68,64,58,100,95,75,30.00,29.92,29.87,10,9,2,13,6,18,0.14,6,Rain,20
2013-6-6,73,65,57,64,60,57,100,90,64,29.94,29.92,29.88,10,7,0,8,4,,0.00,6,Fog,310
2013-6-7,74,62,52,57,55,52,100,75,49,29.97,29.94,29.91,10,10,10,13,6,18,0.00,1,,316
2013-6-8,79,64,49,61,55,49,100,77,44,29.99,29.94,29.89,10,8,2,9,3,,0.00,1,,159
2013-6-9,75,68,60,66,61,57,100,91,68,29.94,29.89,29.82,10,8,1,13,6,22,0.88,5,Rain,204
2013-6-10,83,70,57,67,61,57,100,76,48,29.93,29.88,29.82,10,10,10,12,6,,0.00,0,,267
2013-6-11,92,78,63,73,69,62,94,73,52,29.99,29.95,29.91,10,10,9,7,5,,0.00,2,Rain-Thunderstorm,179
2013-6-12,91,81,71,74,71,68,91,71,53,29.96,29.88,29.82,10,10,10,13,7,23,0.00,1,,212
2013-6-13,82,74,66,72,66,60,96,74,60,30.03,29.97,29.85,10,10,2,13,9,21,0.00,2,,329
2013-6-14,84,72,61,68,64,60,100,75,49,30.07,30.03,29.98,10,10,9,10,4,,0.00,0,,138
2013-6-15,81,72,65,72,67,62,100,90,68,30.08,30.03,29.94,10,10,8,24,7,22,0.04,6,Rain,209
2013-6-16,85,76,67,75,70,63,100,90,61,30.03,29.99,29.93,10,9,2,18,7,17,0.29,6,Rain-Thunderstorm,164
2013-6-17,77,70,63,73,68,63,100,94,83,30.00,29.95,29.90,10,10,10,17,6,23,0.15,6,Rain,24
2013-6-18,85,72,59,69,62,57,100,94,50,30.03,29.99,29.96,10,5,0,18,3,26,0.10,1,Fog-Rain-Thunderstorm,286
2013-6-19,84,72,59,68,64,60,100,75,53,30.08,30.04,30.00,10,10,10,7,3,,0.00,1,,127
2013-6-20,87,76,65,70,68,65,100,75,51,30.13,30.08,30.04,10,9,2,15,7,21,0.00,0,,153
2013-6-21,89,79,70,76,72,67,92,76,62,30.10,30.06,30.01,10,10,10,13,8,20,0.00,1,,164
2013-6-22,90,80,71,74,71,66,100,79,52,30.09,30.04,29.99,10,10,8,17,8,22,0.00,1,,156
2013-6-23,89,77,66,74,71,66,100,80,60,30.04,30.00,29.96,10,10,10,13,9,17,0.00,1,,154
2013-6-24,90,80,72,74,72,70,96,74,53,30.07,30.01,29.95,10,10,10,10,8,17,0.00,1,,177
2013-6-25,89,81,74,74,72,70,87,73,62,29.97,29.91,29.82,10,10,10,15,8,25,0.00,1,,186
2013-6-26,92,84,75,79,74,70,87,73,57,29.89,29.83,29.80,10,10,10,10,7,23,0.00,0,,231
2013-6-27,92,82,72,79,76,73,100,84,56,29.95,29.91,29.83,10,10,9,14,5,,0.00,1,,291
2013-6-28,86,76,66,77,69,62,100,90,48,29.96,29.88,29.81,10,7,0,34,9,58,1.90,4,Fog-Rain-Thunderstorm,306
2013-6-29,81,72,62,64,62,60,100,80,52,29.81,29.78,29.73,10,9,2,29,8,40,0.11,3,Rain,294
2013-6-30,74,68,62,64,63,62,100,90,65,29.97,29.89,29.81,10,10,4,15,7,23,0.02,7,Rain,330